Location: *
(29.1167°S, 130.0000°E)
Time: 22:06:51
(UTC+00:00)

NOSS 2-3 (D) - Pass Details

Date: 21 July 2019
Orbit: 600 x 1612 km, 63.4° (Epoch: 18 August)

Event Time Altitude Azimuth Distance (km) Brightness Sun altitude
Rises 10:15:59 0° 204° (SSW) 3,833 7.8 -20.2°
Reaches altitude 10° 10:19:01 10° 198° (SSW) 2,706 6.9 -20.9°
Maximum altitude 10:24:57 49° 124° (SE) 1,032 4.2 -22.1°
Enters shadow 10:25:02 49° 121° (ESE) 1,030 4.2 -22.2°
